Location: Kaseke
(18.0171°S, 31.0526°E)
Time: 12:49:58
(UTC+00:00)

ATLAS 5 CENTAUR R/B - Pass Details

Date: 14 July 2020
Orbit: 534 x 1124 km, 63.4° (Epoch: 03 August)

Event Time Altitude Azimuth Distance (km) Brightness Sun altitude
Rises 03:37:56 0° 328° (NNW) 3,885 5.5 -11.9°
Reaches altitude 10° 03:40:36 10° 326° (NW) 2,965 4.9 -11.3°
Maximum altitude 03:47:45 66° 244° (WSW) 1,218 2.8 -9.7°
Drops below altitude 10° 03:54:51 10° 162° (SSE) 2,936 5.0 -8.1°
Sets 03:57:29 0° 159° (SSE) 3,844 5.6 -7.5°
